Location: Unspecified
(36.9193°S, 174.7252°E)
Time: 18:22:04
(UTC+12:00)

ISS - Visible Passes

Search period start: 23 September 2021 00:00
Search period end: 03 October 2021 01:00
Orbit: 419 x 424 km, 51.6° (Epoch: 22 September)

Date Brightness Start Highest point End Pass type
(mag) Time Alt. Az. Time Alt. Az. Time Alt. Az.
23 Sep -1.8 04:31:01 21° NNE 04:32:16 26° NE 04:35:12 10° ESE visible
24 Sep -0.8 03:46:26 14° ENE 03:46:26 14° ENE 03:47:35 10° E visible
24 Sep -3.3 05:19:27 15° WNW 05:22:03 50° SW 05:25:26 10° SE visible
25 Sep -3.8 04:34:43 67° NW 04:35:08 88° SW 04:38:36 10° SE visible
26 Sep -1.5 04:49:52 26° ESE 04:49:52 26° ESE 04:51:37 10° ESE visible
26 Sep -1.9 06:22:53 11° WSW 06:25:18 20° SSW 06:27:59 10° SSE visible
27 Sep -2.6 05:37:56 29° SW 05:38:14 30° SSW 05:41:21 10° SSE visible
28 Sep -1.6 04:52:55 25° SSE 04:52:55 25° SSE 04:54:36 10° SE visible
28 Sep -1.2 06:27:37 10° SW 06:28:47 11° SSW 06:29:58 10° S visible
29 Sep -1.5 05:40:50 14° SW 05:41:36 15° SSW 05:43:38 10° SSE visible
30 Sep -1.2 04:55:41 17° S 04:55:41 17° S 04:57:06 10° SSE visible
02 Oct -0.9 04:58:16 11° SSW 04:58:16 11° SSW 04:58:58 10° S visible
